User: anonymous   Login
Location: Crocus Hill
(18.2167°N, 63.0667°W)
Time: 15:45:34
(UTC+00:00)
Language:

Cosmos 2297 Rocket - Orbit

View from above orbital plane
View from above orbital plane
View from above satellite
View from above satellite

Ground track
Ground track

The orbit data is extracted from the following two-line orbital elements,

1 23405U 94077B   20094.77547632 +.00000007 +00000-0 +28384-4 0  9993
2 23405 070.9826 227.4771 0004322 236.2103 123.8608 14.15216648309790
Epoch (UTC): 03 April 2020 18:36:41
Eccentricity: 0.0004322
inclination: 70.9826°
perigee height: 838 km
apogee height: 844 km
right ascension of ascending node: 227.4771°
argument of perigee: 236.2103°
revolutions per day: 14.15216648
mean anomaly at epoch: 123.8608°
orbit number at epoch: 30979

The dashed part of the orbit path shows where the satellite is in the earth's shadow,  

DLR